This is the latest recevied weather packets stored in our database for station/object KG5EO. If no packets are shown the sender has not sent any weather packets the latest 10 day(s).
| Time | Temp. | Humidity | Pressure | Rain* | Wind** | Luminosity | Snow |
|---|---|---|---|---|---|---|---|
| 1777827067 | 28.89° C | 29% | 40.9 hPa | 0 mm | - | - | - |
| 1777826767 | 28.89° C | 29% | 40.9 hPa | 0 mm | - | - | - |
| 1777826466 | 28.33° C | 31% | 40.9 hPa | 0 mm | - | - | - |
| 1777826167 | 28.33° C | 31% | 40.9 hPa | 0 mm | - | - | - |
| 1777825866 | 28.33° C | 30% | 40.9 hPa | 0 mm | - | - | - |
| 1777825567 | 28.33° C | 30% | 40.9 hPa | 0 mm | - | - | - |
| 1777825267 | 27.78° C | 32% | 40.9 hPa | 0 mm | - | - | - |
| 1777824966 | 27.78° C | 31% | 40.9 hPa | 0 mm | - | - | - |
| 1777824667 | 27.78° C | 32% | 40.9 hPa | 0 mm | - | - | - |
| 1777824366 | 27.78° C | 33% | 40.9 hPa | 0 mm | - | - | - |
| 1777824065 | 27.22° C | 32% | 40.9 hPa | 0 mm | - | - | - |
| 1777823765 | 27.22° C | 33% | 40.9 hPa | 0 mm | - | - | - |
| 1777823465 | 27.22° C | 32% | 40.9 hPa | 0 mm | - | - | - |
| 1777823165 | 27.22° C | 33% | 40.9 hPa | 0 mm | - | - | - |
| 1777822865 | 27.22° C | 33% | 40.9 hPa | 0 mm | - | - | - |
| 1777822565 | 26.67° C | 35% | 40.9 hPa | 0 mm | - | - | - |
| 1777822265 | 26.11° C | 38% | 40.9 hPa | 0 mm | - | - | - |
| 1777821964 | 25° C | 40% | 40.9 hPa | 0 mm | - | - | - |
| 1777821665 | 24.44° C | 41% | 40.9 hPa | 0 mm | - | - | - |
| 1777821364 | 23.89° C | 41% | 40.9 hPa | 0 mm | - | - | - |
| 1777821064 | 23.33° C | 41% | 40.9 hPa | 0 mm | - | - | - |
| 1777820764 | 22.78° C | 45% | 40.9 hPa | 0 mm | - | - | - |
| 1777820464 | 22.78° C | 48% | 40.9 hPa | 0 mm | - | - | - |
| 1777820164 | 22.22° C | 50% | 41 hPa | 0 mm | - | - | - |
| 1777819863 | 21.67° C | 50% | 41 hPa | 0 mm | - | - | - |
* Rain latest hour (hover to see other rain measurements)
** Current wind speed in m/s (hover to see current wind gust speed)